EST,Max TemperatureF,Mean TemperatureF,Min TemperatureF,Max Dew PointF,MeanDew PointF,Min DewpointF,Max Humidity, Mean Humidity, Min Humidity, Max Sea Level PressureIn, Mean Sea Level PressureIn, Min Sea Level PressureIn, Max VisibilityMiles, Mean VisibilityMiles, Min VisibilityMiles, Max Wind SpeedMPH, Mean Wind SpeedMPH, Max Gust SpeedMPH,PrecipitationIn, CloudCover, Events, WindDirDegrees
2013-2-1,33,25,17,27,18,5,93,70,37,30.41,30.04,29.81,10,10,2,29,6,37,0.00,4,,324
2013-2-2,33,24,14,28,17,9,100,83,41,30.40,30.25,30.01,10,10,3,12,3,16,0.00,3,Snow,192
2013-2-3,33,27,21,30,25,18,100,92,60,30.00,29.93,29.85,10,9,1,17,1,25,0.00,7,Snow,274
2013-2-4,37,28,19,25,18,12,86,63,45,30.12,30.00,29.90,10,10,10,20,8,31,0.00,3,,225
2013-2-5,44,35,26,32,28,23,100,77,53,29.95,29.89,29.84,10,10,8,7,1,,0.00,5,,360
2013-2-6,46,36,24,37,29,25,100,82,49,30.35,30.15,29.94,10,10,8,14,3,18,0.00,3,,356
2013-2-7,41,32,23,32,26,21,100,83,56,30.45,30.35,30.20,10,10,8,9,2,,0.00,4,,88
2013-2-8,42,38,33,37,32,23,100,81,60,30.19,29.94,29.77,10,9,4,30,9,39,0.01,7,Rain,339
2013-2-9,42,32,23,23,20,16,93,60,34,30.41,30.18,29.96,10,10,10,30,20,40,0.00,3,,326
2013-2-10,44,30,15,27,21,14,100,77,31,30.49,30.39,30.23,10,10,10,13,2,,0.00,0,,156
2013-2-11,55,46,37,52,42,28,100,93,65,30.24,29.96,29.73,10,9,2,13,7,16,0.01,5,,184
2013-2-12,57,45,33,39,29,19,100,54,29,30.00,29.93,29.82,10,10,10,16,4,21,0.00,0,,312
2013-2-13,44,36,28,39,32,28,100,89,57,29.95,29.82,29.67,10,7,2,9,5,,0.01,4,,355
2013-2-14,48,38,28,34,30,27,100,86,43,30.03,29.95,29.80,10,8,1,14,2,20,0.00,1,,298
2013-2-15,57,40,24,39,32,23,100,86,33,30.04,30.00,29.91,10,10,7,21,4,26,0.01,3,,341
2013-2-16,39,34,28,37,29,18,100,81,52,30.02,29.94,29.86,10,8,1,18,4,25,0.01,6,,339
2013-2-17,30,27,24,23,14,7,80,59,40,30.22,30.00,29.86,10,10,10,23,12,33,0.00,1,,310
2013-2-18,44,30,15,21,12,9,93,54,23,30.40,30.27,30.16,10,10,10,17,8,24,0.00,0,,214
2013-2-19,46,38,28,43,31,19,100,76,49,30.16,29.93,29.74,10,10,8,16,8,25,0.01,3,Rain,194
2013-2-20,41,32,24,30,20,12,93,64,36,30.18,30.03,29.86,10,10,10,21,8,26,0.00,2,,329
2013-2-21,39,31,23,19,15,12,69,59,39,30.33,30.22,30.15,10,10,10,18,10,26,0.00,0,,325
2013-2-22,33,30,26,32,26,19,93,79,56,30.39,30.30,30.22,10,10,10,9,4,,0.01,5,,129
2013-2-23,44,38,33,43,38,32,100,98,93,30.21,30.00,29.82,10,5,1,9,2,,0.00,8,,345
2013-2-24,53,43,33,43,32,19,100,75,30,30.13,29.93,29.82,10,9,5,22,10,31,0.00,4,,338
2013-2-25,46,32,19,27,22,19,100,73,34,30.23,30.19,30.14,10,10,10,14,4,18,0.00,0,,336
2013-2-26,44,34,24,45,34,21,100,96,75,30.23,29.97,29.60,10,8,3,20,3,28,0.00,4,Rain,54
2013-2-27,57,47,37,43,38,34,100,76,44,29.71,29.63,29.54,10,9,3,12,7,16,0.00,6,,294
2013-2-28,46,42,39,39,32,25,100,67,43,29.75,29.69,29.64,10,10,10,14,4,18,0.00,7,,306